User: anonymous   Login
Location: Celina Division
(33.3022°N, 96.7580°W)
Time: 04:32:12
(UTC+00:00)
Language:

AO-27 - Orbit

View from above orbital plane
View from above orbital plane
View from above satellite
View from above satellite

Ground track
Ground track

The orbit data is extracted from the following two-line orbital elements,

1 22825U 93061C   23079.85423479  .00000198  00000-0  94119-4 0  9997
2 22825  98.8535 121.2717 0007824 332.4480  27.6286 14.30267723537668
Epoch (UTC): 20 March 2023 20:30:05
Eccentricity: 0.0007824
inclination: 98.8535°
perigee height: 785 km
apogee height: 796 km
right ascension of ascending node: 121.2717°
argument of perigee: 332.4480°
revolutions per day: 14.30267723
mean anomaly at epoch: 27.6286°
orbit number at epoch: 53766

The dashed part of the orbit path shows where the satellite is in the earth's shadow,  

DLR